User: anonymous   Login
Location: Unspecified
(0.0000°N, 0.0000°E)
Time: 07:06:21
(UTC+00:00)
Language:

CORVUS BC1 - Orbit

View from above orbital plane
View from above orbital plane
View from above satellite
View from above satellite

Ground track
Ground track

The orbit data is extracted from the following two-line orbital elements,

1 42847U 17042Y   18350.94354497 +.00000219 +00000-0 +26929-4 0  9995
2 42847 097.5827 247.1214 0008188 314.1776 045.8769 14.91997770077614
Epoch (UTC): 16 December 2018 22:38:42
Eccentricity: 0.0008188
inclination: 97.5827°
perigee height: 586 km
apogee height: 597 km
right ascension of ascending node: 247.1214°
argument of perigee: 314.1776°
revolutions per day: 14.91997770
mean anomaly at epoch: 45.8769°
orbit number at epoch: 7761

The dashed part of the orbit path shows where the satellite is in the earth's shadow,  

DLR